Location: Newark
(33.6439°N, 114.9881°W)
Time: 18:53:01
(UTC+00:00)

A-11 Canister half - Pass Details

Date: 31 August 2019
Orbit: 1527 x 1682 km, 47.3° (Epoch: 15 October)

Event Time Altitude Azimuth Distance (km) Brightness Sun altitude
Rises 23:36:24 0° 305° (NW) 4,922 12.2 30.3°
Reaches altitude 10° 23:39:33 10° 305° (NW) 3,940 11.9 29.7°
Maximum altitude 23:49:42 77° 221° (SW) 1,714 9.9 27.6°
Drops below altitude 10° 23:59:45 10° 137° (SE) 3,902 10.9 25.5°
Sets 00:02:51 0° 136° (SE) 4,873 11.3 24.9°
